OPAL - Orbit

View from above orbital plane
View from above orbital plane
View from above satellite
View from above satellite

Ground track
Ground track

The orbit data is extracted from the following two-line orbital elements,

1 26063U 00004C   13168.27086545  .00000029  00000-0  29862-4 0  7100
2 26063 100.1926 243.1249 0037461 106.9429 285.0036 14.36191359701649
Epoch (UTC): 17 June 2013 06:30:02
Eccentricity: 0.0037461
inclination: 100.1926°
perigee height: 744 km
apogee height: 798 km
right ascension of ascending node: 243.1249°
argument of perigee: 106.9429°
revolutions per day: 14.36191359
mean anomaly at epoch: 285.0036°
orbit number at epoch: 70164

The dashed part of the orbit path shows where the satellite is in the earth's shadow,  

Developed and maintained by Chris Peat, Heavens-Above GmbH. Please read the updated FAQ before sending e-mail. Imprint. DLR